[[{"header":{"parameterUnit":"m.s-1","parameterCategory":1,"la1":30.2991,"la2":30.254,"lo1":-89.0895,"lo2":-89.0444,"dy":0.0017,"dx":0.0017,"nx":28,"ny":28,"refTime":"2024-03-12T21:00:00:Z","depth":0,"parameterNumber":2,"parameterNumberName":"U-component_of_WINDS"},"data":[0,0,0,0,0,0,0,0,0,0,0,0,0,0,0,0,0,0,0,0,0,0,0,0,0,0,0,0,0,0,0,0,0,0,0,0,0,0,0,0,0,0,0,0,0,0,0,0,0,0,0,0,0,0,0,0,0,0,-0.6167,-0.6167,0,-0.6196,-0.6197,-0.6197,-0.6213,-0.6213,-0.6213,-0.6213,-0.6244,-0.6245,-0.6245,0,0,0,0,0,0,0,0,0,0,0,0,0,-0.6127,-0.6128,-0.6167,-0.6167,-0.6168,-0.6196,-0.6197,-0.6197,-0.6213,-0.6213,-0.6213,-0.6213,-0.6244,-0.6245,-0.6245,0,0,0,0,0,0,0,0,0,0,0,0,0,-0.6149,-0.6128,-0.6167,-0.6179,-0.6181,-0.6196,-0.6197,-0.6197,-0.6213,-0.6213,-0.6213,-0.6213,-0.6243,-0.6244,-0.6246,-0.6251,0,0,-0.6249,-0.625,0,0,0,0,0,0,0,0,-0.6148,-0.6151,-0.6177,-0.6178,-0.618,-0.6201,-0.6194,-0.6215,-0.6213,-0.6201,-0.6213,-0.6213,-0.623,-0.6232,-0.6237,-0.6253,-0.6254,-0.6249,-0.625,-0.625,-0.6251,0,0,0,0,0,0,0,-0.6146,-0.615,-0.6179,-0.6177,-0.6179,-0.6184,-0.6187,-0.6198,-0.6215,-0.6202,-0.6203,-0.6206,-0.623,-0.6236,-0.6238,-0.6255,-0.6249,-0.625,-0.6251,-0.6251,-0.6278,-0.6278,0,0,0,0,0,0,-0.6143,-0.6148,-0.6178,-0.618,-0.6164,-0.6185,-0.6188,-0.6194,-0.6214,-0.6218,-0.6206,-0.6207,-0.6234,-0.6237,-0.6239,-0.6248,-0.625,-0.6252,-0.6252,-0.6278,-0.6278,-0.6278,0,0,0,0,0,0,-0.6142,-0.6145,-0.6177,-0.6164,-0.6169,-0.6185,-0.6192,-0.6195,-0.62,-0.6218,-0.6221,-0.6209,-0.6234,-0.6238,-0.6249,-0.625,-0.6252,-0.6253,-0.6278,-0.6278,-0.6278,-0.6266,0,0,0,0,0,0,-0.6141,-0.6145,-0.6147,-0.6164,-0.6169,-0.6185,-0.6192,-0.6195,-0.6202,-0.6204,-0.6221,-0.6224,-0.6235,-0.6247,-0.625,-0.6251,-0.6254,-0.6278,-0.6278,-0.6278,-0.6266,-0.6266,-0.6265,0,0,0,0,0,-0.6139,-0.6142,-0.6147,-0.615,-0.6172,-0.6185,-0.6188,-0.62,-0.6202,-0.6205,-0.6216,-0.6223,-0.6249,-0.6248,-0.6251,-0.6253,-0.6278,-0.6278,-0.6278,-0.6267,-0.6266,-0.6265,0,0,0,0,0,0,-0.6124,-0.6144,-0.615,-0.6158,-0.617,-0.6187,-0.6191,-0.6198,-0.6209,-0.621,-0.6224,-0.6228,-0.6238,-0.6247,-0.6245,-0.6261,-0.6264,-0.6265,-0.6255,-0.6254,-0.6253,-0.6251,-0.6255,0,0,0,0,0,-0.6122,-0.613,-0.6148,-0.6154,-0.6159,-0.6174,-0.618,-0.6188,-0.6201,-0.6206,-0.6218,-0.623,-0.6241,-0.6248,-0.6259,-0.6268,-0.6272,-0.6271,-0.627,-0.627,-0.627,-0.6277,-0.6277,-0.6278,-0.6278,-0.6278,0,0,-0.6117,-0.6129,-0.6134,-0.6151,-0.6161,-0.617,-0.6178,-0.6187,-0.6194,-0.6207,-0.6218,-0.6228,-0.6243,-0.6253,-0.6258,-0.626,-0.6271,-0.627,-0.6269,-0.627,-0.6277,-0.6277,-0.6276,-0.6278,-0.6278,-0.6278,0,0,-0.6113,-0.6123,-0.6129,-0.6139,-0.6154,-0.6164,-0.6166,-0.6183,-0.6189,-0.6201,-0.6211,-0.6221,-0.6239,-0.6249,-0.6257,-0.6258,-0.6266,-0.6262,-0.6258,-0.6264,-0.6264,-0.6264,-0.6265,-0.6266,-0.6262,-0.6262,-0.6262,0,-0.6106,-0.6119,-0.6132,-0.6141,-0.6148,-0.6161,-0.6168,-0.6177,-0.6195,-0.62,-0.6203,-0.6227,-0.6237,-0.6251,-0.6251,-0.6257,-0.626,-0.626,-0.6263,-0.6263,-0.6263,-0.6265,-0.6265,-0.6261,-0.6261,-0.6262,-0.6262,0,-0.611,-0.6119,-0.6123,-0.614,-0.6148,-0.6156,-0.617,-0.6177,-0.6185,-0.6195,-0.6207,-0.6221,-0.6235,-0.6239,-0.6247,-0.6254,-0.6255,-0.626,-0.6264,-0.6262,-0.6264,-0.6265,-0.6261,-0.6261,-0.6261,-0.6261,0,0,-0.6097,-0.6121,-0.6122,-0.6131,-0.6148,-0.6156,-0.6165,-0.6179,-0.6185,-0.6198,-0.6206,-0.6222,-0.6227,-0.6236,-0.6245,-0.625,-0.6252,-0.6255,-0.6255,-0.6254,-0.6262,-0.6259,-0.6259,-0.6257,-0.6257,-0.6257,-0.6261,0,-0.6096,-0.6112,-0.6124,-0.6136,-0.6146,-0.6158,-0.6166,-0.6179,-0.6189,-0.6199,-0.621,-0.6221,-0.6227,-0.6232,-0.6238,-0.625,-0.6254,-0.625,-0.6266,-0.6266,-0.6262,-0.626,-0.6256,-0.6259,-0.6262,-0.6262,-0.6262,0,-0.6097,-0.6109,-0.6122,-0.614,-0.6144,-0.6151,-0.6166,-0.6175,-0.6189,-0.6196,-0.6207,-0.6216,-0.6227,-0.6231,-0.6247,-0.6244,-0.6251,-0.6258,-0.6259,-0.6261,-0.6264,-0.6262,-0.626,-0.626,-0.6263,-0.6263,-0.6263,0,-0.6087,-0.6106,-0.6117,-0.6123,-0.6144,-0.6149,-0.6158,-0.6173,-0.6181,-0.6194,-0.62,-0.6214,-0.6221,-0.6233,-0.6246,-0.6247,-0.6261,-0.6265,-0.6268,-0.6268,-0.627,-0.627,-0.6269,-0.6274,-0.6274,-0.6274,-0.6274,0,-0.6085,-0.6093,-0.6113,-0.6119,-0.6129,-0.6143,-0.6152,-0.6162,-0.6175,-0.6185,-0.6197,-0.6205,-0.6222,-0.6233,-0.6244,-0.6257,-0.626,-0.6266,-0.6269,-0.6266,-0.6265,-0.6271,-0.6271,-0.6274,-0.6274,-0.6274,-0.6274,0,-0.6076,-0.6089,-0.6102,-0.6121,-0.6126,-0.6132,-0.6149,-0.6156,-0.6167,-0.6179,-0.6182,-0.62,-0.6213,-0.6228,-0.6247,-0.6254,-0.6266,-0.627,-0.6261,-0.6263,-0.6265,-0.6265,-0.6268,-0.627,-0.6273,-0.6273,-0.6273,0,-0.6074,-0.608,-0.61,-0.6107,-0.6116,-0.6127,-0.6135,-0.615,-0.6158,-0.6176,-0.6182,-0.6196,-0.6209,-0.623,-0.6245,-0.626,-0.6264,-0.6264,-0.6266,-0.6263,-0.6265,-0.6265,-0.6266,-0.6264,-0.6264,-0.6264,-0.6264,0,-0.6069,-0.6076,-0.6087,-0.6101,-0.6111,-0.6123,-0.6136,-0.6141,-0.6158,-0.6167,-0.6182,-0.6191,-0.6211,-0.6225,-0.6242,-0.6252,-0.6261,-0.6263,-0.6264,-0.6261,-0.6256,-0.6259,-0.626,-0.6263,-0.6263,-0.6263,-0.6263,-0.6263,-0.6064,-0.607,-0.6085,-0.6098,-0.6109,-0.6121,-0.6129,-0.6141,-0.6153,-0.617,-0.6178,-0.6193,-0.6209,-0.6232,-0.6242,-0.6254,-0.6257,-0.6258,-0.6259,-0.626,-0.6259,-0.6254,-0.6257,-0.6257,-0.6257,-0.6257,-0.6257,0,-0.606,-0.6071,-0.6083,-0.61,-0.611,-0.6117,-0.6132,-0.614,-0.6153,-0.6167,-0.6179,-0.6196,-0.621,-0.6227,-0.6242,-0.6249,-0.6254,-0.6253,-0.6253,-0.6255,-0.6255,-0.6253,-0.6249,-0.6249,-0.6249,-0.6249,-0.6249,-0.6249,-0.606,-0.6071,-0.608,-0.6098,-0.6109,-0.6123,-0.6131,-0.6142,-0.6153,-0.6171,-0.6183,-0.6194,-0.6209,-0.6226,-0.6241,-0.6245,-0.6251,-0.6249,-0.6254,-0.6254,-0.6255,-0.6256,-0.6253,-0.625,-0.625,-0.6253,-0.6253,-0.6253]},{"header":{"parameterUnit":"m.s-1","parameterCategory":1,"la1":30.2991,"la2":30.254,"lo1":-89.0895,"lo2":-89.0444,"dy":0.0017,"dx":0.0017,"nx":28,"ny":28,"refTime":"2024-03-12T21:00:00:Z","depth":0,"parameterNumber":3,"parameterNumberName":"V-component_of_WINDS"},"data":[0,0,0,0,0,0,0,0,0,0,0,0,0,0,0,0,0,0,0,0,0,0,0,0,0,0,0,0,0,0,0,0,0,0,0,0,0,0,0,0,0,0,0,0,0,0,0,0,0,0,0,0,0,0,0,0,0,0,1.3501,1.3502,0,1.3566,1.3567,1.3567,1.3584,1.3583,1.3583,1.3583,1.3646,1.3648,1.365,0,0,0,0,0,0,0,0,0,0,0,0,0,1.3386,1.3388,1.3501,1.3502,1.3503,1.3566,1.3567,1.3568,1.3584,1.3583,1.3583,1.3582,1.3645,1.3647,1.365,0,0,0,0,0,0,0,0,0,0,0,0,0,1.3442,1.3389,1.3501,1.3518,1.3521,1.3566,1.3567,1.3568,1.3584,1.3583,1.3583,1.3582,1.3644,1.3647,1.365,1.3681,0,0,1.366,1.3661,0,0,0,0,0,0,0,0,1.3439,1.3446,1.3515,1.3517,1.352,1.3566,1.3549,1.3606,1.3584,1.356,1.3583,1.3582,1.3619,1.3625,1.3638,1.3684,1.3687,1.366,1.3662,1.3663,1.3664,0,0,0,0,0,0,0,1.3435,1.3443,1.3527,1.3516,1.3519,1.3521,1.3529,1.356,1.3592,1.3562,1.3563,1.3571,1.3621,1.3635,1.364,1.3688,1.366,1.3662,1.3664,1.3666,1.3761,1.3761,0,0,0,0,0,0,1.3429,1.344,1.3524,1.3528,1.3477,1.3524,1.3532,1.3552,1.3592,1.3597,1.3571,1.3571,1.363,1.3636,1.3642,1.368,1.3663,1.3666,1.3668,1.376,1.3761,1.3762,0,0,0,0,0,0,1.3426,1.3436,1.3522,1.3485,1.3496,1.3527,1.3549,1.3553,1.3568,1.3599,1.3604,1.358,1.363,1.3637,1.3671,1.3682,1.3667,1.367,1.3759,1.376,1.3761,1.3757,0,0,0,0,0,0,1.3423,1.3435,1.3448,1.3485,1.3498,1.3552,1.3549,1.3555,1.3574,1.3574,1.3609,1.3614,1.363,1.3666,1.3674,1.3686,1.3672,1.3758,1.376,1.3761,1.3756,1.3757,1.3759,0,0,0,0,0,1.3419,1.3444,1.3449,1.3459,1.3515,1.3552,1.3559,1.3578,1.3574,1.3587,1.3607,1.3613,1.368,1.367,1.3679,1.3692,1.3758,1.3759,1.3761,1.3755,1.3757,1.3759,0,0,0,0,0,0,1.3407,1.3449,1.3455,1.3494,1.3519,1.3555,1.3572,1.358,1.3606,1.3605,1.3626,1.3634,1.3666,1.3682,1.367,1.3723,1.3719,1.3722,1.3711,1.3713,1.3715,1.371,1.3675,0,0,0,0,0,1.3409,1.3437,1.3472,1.3502,1.3515,1.3541,1.3558,1.357,1.3597,1.3607,1.363,1.3655,1.3681,1.3698,1.3724,1.3758,1.3765,1.3771,1.3773,1.3774,1.3776,1.3794,1.3796,1.3767,1.3767,1.3767,0,0,1.3413,1.344,1.3456,1.35,1.3522,1.3548,1.355,1.3579,1.3598,1.3611,1.3645,1.3662,1.3691,1.3724,1.374,1.3739,1.3786,1.3775,1.3776,1.3778,1.3796,1.3798,1.3801,1.3768,1.3767,1.3767,0,0,1.3435,1.3458,1.3486,1.3507,1.3539,1.3557,1.3563,1.3597,1.3609,1.3643,1.3653,1.3676,1.3722,1.3741,1.3757,1.3784,1.379,1.3792,1.3799,1.3816,1.3818,1.3821,1.3829,1.3832,1.3795,1.3795,1.3795,0,1.3436,1.3478,1.3498,1.3526,1.3545,1.3559,1.3585,1.3605,1.3643,1.3655,1.3653,1.371,1.373,1.3768,1.3774,1.3787,1.3794,1.3789,1.3817,1.3819,1.3821,1.383,1.3833,1.3795,1.3795,1.3795,1.3795,0,1.3477,1.3506,1.3524,1.3562,1.3582,1.3609,1.3632,1.365,1.3659,1.3676,1.3709,1.3734,1.3765,1.3775,1.3785,1.3813,1.3811,1.3813,1.3809,1.3824,1.3832,1.3835,1.3795,1.3795,1.3795,1.3795,0,0,1.3494,1.3542,1.3548,1.3565,1.3601,1.3623,1.365,1.3681,1.3695,1.3721,1.3743,1.378,1.3782,1.38,1.3811,1.3826,1.3844,1.3826,1.3827,1.3828,1.3876,1.3875,1.3878,1.3849,1.3849,1.385,1.3874,0,1.352,1.357,1.3588,1.3628,1.3654,1.3667,1.369,1.3713,1.3729,1.3752,1.3769,1.3795,1.3795,1.3806,1.3821,1.3839,1.3854,1.3838,1.3868,1.3869,1.386,1.3883,1.3882,1.3903,1.3877,1.3878,1.3878,0,1.3556,1.3583,1.3626,1.3658,1.3669,1.369,1.3719,1.3741,1.3768,1.3778,1.3797,1.3808,1.3834,1.3829,1.3865,1.3853,1.3866,1.3876,1.3878,1.3881,1.3874,1.3886,1.391,1.3913,1.3883,1.3883,1.3883,0,1.3563,1.361,1.3642,1.3656,1.3694,1.3708,1.3724,1.375,1.3766,1.3791,1.3802,1.3829,1.3844,1.3864,1.388,1.3875,1.3914,1.391,1.3922,1.3922,1.393,1.3929,1.3956,1.3939,1.3939,1.3939,1.3939,0,1.359,1.3616,1.3645,1.3665,1.3693,1.3713,1.374,1.3756,1.3779,1.38,1.3812,1.3832,1.3853,1.3875,1.3888,1.3915,1.3922,1.3929,1.3933,1.3928,1.3927,1.3937,1.3936,1.394,1.394,1.394,1.3939,0,1.3603,1.3624,1.3659,1.3692,1.3701,1.372,1.3747,1.3765,1.3781,1.3808,1.3815,1.384,1.3866,1.3885,1.3918,1.3927,1.3956,1.3959,1.3947,1.3949,1.3959,1.3958,1.3993,1.3998,1.3978,1.3978,1.3978,0,1.3618,1.3638,1.3673,1.3689,1.3705,1.3731,1.3748,1.3767,1.3784,1.3815,1.3829,1.3856,1.3879,1.3919,1.3939,1.3964,1.3968,1.3979,1.3972,1.3966,1.3967,1.3966,1.3967,1.3979,1.398,1.398,1.398,0,1.3643,1.3652,1.3678,1.3706,1.3727,1.375,1.3773,1.3784,1.3807,1.3826,1.3853,1.3871,1.3905,1.3931,1.3958,1.3973,1.3979,1.3982,1.3986,1.3981,1.3974,1.3977,1.3949,1.3981,1.3981,1.3981,1.3981,1.3981,1.3658,1.3675,1.3702,1.373,1.3749,1.377,1.3788,1.3806,1.383,1.386,1.3869,1.3897,1.3921,1.3958,1.3973,1.3994,1.3993,1.3999,1.4,1.4001,1.4001,1.397,1.3999,1.3999,1.3998,1.3998,1.3998,0,1.3682,1.37,1.3725,1.3757,1.3778,1.3783,1.3808,1.3825,1.385,1.3872,1.3894,1.3924,1.3949,1.3971,1.3996,1.4009,1.4012,1.4015,1.4014,1.4017,1.4,1.3994,1.4011,1.4011,1.4011,1.4011,1.4011,1.4011,1.3698,1.3728,1.374,1.3779,1.3796,1.3824,1.3838,1.3857,1.3874,1.3908,1.3929,1.3943,1.3964,1.3991,1.4014,1.4019,1.4028,1.4029,1.4035,1.402,1.4018,1.4017,1.4011,1.4031,1.4031,1.405,1.405,1.405]}]]